User: anonymous   Login
Location: Newark
(49.8348°N, 24.0280°E)
Time: 12:19:28
(UTC+00:00)
Language:

Altair - Orbit

View from above orbital plane
View from above orbital plane
View from above satellite
View from above satellite

Ground track
Ground track

The orbit data is extracted from the following two-line orbital elements,

1    50U 60009B   20021.63332340 -.00000093  00000-0 -85861-4 0  9995
2    50  47.2285 220.0539 0113288 245.1488 113.7486 12.20108928652625
Epoch (UTC): 21 January 2020 15:11:59
Eccentricity: 0.0113288
inclination: 47.2285°
perigee height: 1502 km
apogee height: 1682 km
right ascension of ascending node: 220.0539°
argument of perigee: 245.1488°
revolutions per day: 12.20108928
mean anomaly at epoch: 113.7486°
orbit number at epoch: 65262

The dashed part of the orbit path shows where the satellite is in the earth's shadow,  

DLR